Location: Campavaglio
(41.1333°N, 9.2333°E)
Time: 03:48:56
(UTC+00:00)

Cosmos 2084 Rocket - Pass Details

Date: 07 June 2020
Orbit: 558 x 623 km, 62.8° (Epoch: 04 July)

Event Time Altitude Azimuth Distance (km) Brightness Sun altitude
Rises 00:07:44 0° 326° (NNW) 2,875 7.6 -25.2°
Reaches altitude 10° 00:10:02 10° 330° (NNW) 1,975 6.7 -25.1°
Maximum altitude 00:14:29 64° 52° (NE) 688 3.8 -24.9°
Enters shadow 00:14:58 59° 87° (E) 718 3.8 -24.9°
